Weather History for Algona, IA

Change the Weather History Date:

Friday, August 3, 2012

  Actual Average Record
Temperature  
Mean Temperature 76 °F -  
Max Temperature 89 °F 79 °F 95 °F (2002)
Min Temperature 64 °F 61 °F 53 °F (2007)
Cooling Degree Days 12    
Growing Degree Days 26 (Base 50)    
Moisture  
Dew Point 67 °F    
Average Humidity 70    
Maximum Humidity 94    
Minimum Humidity 46    
Precipitation  
Precipitation 0.00 in - - ()
Sea Level Pressure  
Sea Level Pressure 29.84 in    
Wind  
Wind Speed 6 mph (SE)    
Max Wind Speed 14 mph    
Max Gust Speed 20 mph    
Visibility 10 miles    
Events      
Averages and records for this station are not official NWS values.
T = Trace of Precipitation, MM = Missing Value Source: NWS Daily Summary

Daily Weather History Graph

Daily Weather History Graph

Search for Another Location

Airport:

Trip Planner

Search our weather history database for the weather conditions in past years. The results will help you decide how hot, cold, wet, or windy it might be!

Date:

Astronomy

Aug. 03, 2012 Rise Set
Actual Time 6:10 AM CDT 8:35 PM CDT
Civil Twilight 5:38 AM CDT 9:07 PM CDT
Nautical Twilight 4:58 AM CDT 9:46 PM CDT
Astronomical Twilight 4:13 AM CDT 10:31 PM CDT
Moon 9:08 PM CDT (8/3) 7:58 AM CDT (8/3)
Length of Visible Light 15h 28m
Length of Day
14h 24m
Full, 97% of the Moon is Illuminated
Aug 3
Full
Aug 9
Last Quarter
Aug 17
New
Aug 24
First Quarter
Aug 31
Full

Hourly Weather History & Observations

Time (CDT) Temp. Heat Index Dew Point Humidity Pressure Visibility Wind Dir Wind Speed Gust Speed Precip Events Conditions
12:35 AM 71.6 °F - 64.4 °F 78% 29.88 in 10.0 mi ENE 4.6 mph - N/A   Clear
12:55 AM 69.8 °F - 64.4 °F 83% 29.88 in 10.0 mi ENE 4.6 mph - N/A   Clear
1:15 AM 69.8 °F - 64.4 °F 83% 29.88 in 10.0 mi NE 4.6 mph - N/A   Clear
1:35 AM 68.0 °F - 64.4 °F 88% 29.88 in 10.0 mi NE 3.5 mph - N/A   Clear
1:55 AM 66.2 °F - 64.4 °F 94% 29.87 in 10.0 mi Calm Calm - N/A   Clear
2:15 AM 68.0 °F - 64.4 °F 88% 29.86 in 10.0 mi NE 3.5 mph - N/A   Clear
2:35 AM 66.2 °F - 64.4 °F 94% 29.86 in 10.0 mi NE 4.6 mph - N/A   Clear
2:55 AM 66.2 °F - 64.4 °F 94% 29.86 in 10.0 mi Calm Calm - N/A   Clear
3:15 AM 68.0 °F - 64.4 °F 88% 29.87 in 10.0 mi Calm Calm - N/A   Clear
3:35 AM 68.0 °F - 64.4 °F 88% 29.89 in 10.0 mi Calm Calm - N/A   Clear
3:55 AM 66.2 °F - 64.4 °F 94% 29.88 in 10.0 mi NE 3.5 mph - N/A   Clear
4:15 AM 66.2 °F - 64.4 °F 94% 29.87 in 10.0 mi ENE 4.6 mph - N/A   Clear
4:35 AM 66.2 °F - 64.4 °F 94% 29.89 in 10.0 mi NNE 6.9 mph - N/A   Clear
4:55 AM 66.2 °F - 64.4 °F 94% 29.89 in 10.0 mi NE 5.8 mph - N/A   Clear
5:15 AM 66.2 °F - 64.4 °F 94% 29.89 in 10.0 mi Variable 3.5 mph - N/A   Clear
5:35 AM 66.2 °F - 64.4 °F 94% 29.88 in 10.0 mi East 3.5 mph - N/A   Clear
5:55 AM 66.2 °F - 64.4 °F 94% 29.89 in 10.0 mi Calm Calm - N/A   Clear
6:15 AM 64.4 °F - 62.6 °F 94% 29.89 in 10.0 mi ENE 3.5 mph - N/A   Clear
6:35 AM 66.2 °F - 64.4 °F 94% 29.89 in 10.0 mi Calm Calm - N/A   Clear
6:55 AM 66.2 °F - 64.4 °F 94% 29.89 in 10.0 mi Calm Calm - N/A   Partly Cloudy
7:15 AM 69.8 °F - 64.4 °F 83% 29.89 in 10.0 mi East 4.6 mph - N/A   Scattered Clouds
7:35 AM 71.6 °F - 66.2 °F 83% 29.89 in 10.0 mi Variable 5.8 mph - N/A   Clear
7:55 AM 71.6 °F - 64.4 °F 78% 29.89 in 10.0 mi ESE 6.9 mph 12.7 mph N/A   Clear
8:15 AM 75.2 °F - 64.4 °F 69% 29.89 in 10.0 mi ESE 9.2 mph - N/A   Clear
8:35 AM 75.2 °F - 66.2 °F 73% 29.89 in 10.0 mi SE 9.2 mph - N/A   Clear
8:55 AM 77.0 °F - 66.2 °F 69% 29.88 in 10.0 mi SE 11.5 mph - N/A   Clear
9:15 AM 77.0 °F - 68.0 °F 74% 29.87 in 10.0 mi SE 12.7 mph 18.4 mph N/A   Clear
9:35 AM 77.0 °F - 68.0 °F 74% 29.88 in 10.0 mi SE 9.2 mph 15.0 mph N/A   Clear
10:15 AM 78.8 °F - 69.8 °F 74% 29.87 in 10.0 mi SE 9.2 mph - N/A   Clear
10:35 AM 80.6 °F 83.9 °F 69.8 °F 70% 29.87 in 10.0 mi SE 9.2 mph - N/A   Clear
10:55 AM 82.4 °F 86.3 °F 69.8 °F 66% 29.88 in 10.0 mi SE 8.1 mph 13.8 mph N/A   Clear
11:15 AM 82.4 °F 86.3 °F 69.8 °F 66% 29.87 in 10.0 mi SE 6.9 mph - N/A   Clear
11:35 AM 84.2 °F 88.4 °F 69.8 °F 62% 29.88 in 10.0 mi SE 10.4 mph - N/A   Clear
11:55 AM 84.2 °F 87.3 °F 68.0 °F 58% 29.88 in 10.0 mi SSE 9.2 mph 16.1 mph N/A   Clear
12:15 PM 86.0 °F 89.4 °F 68.0 °F 55% 29.88 in 10.0 mi SE 9.2 mph 15.0 mph N/A   Clear
12:35 PM 86.0 °F 89.4 °F 68.0 °F 55% 29.87 in 10.0 mi SSE 11.5 mph - N/A   Clear
12:55 PM 87.8 °F 90.4 °F 66.2 °F 49% 29.86 in 10.0 mi SSE 11.5 mph 17.3 mph N/A   Clear
1:15 PM 87.8 °F 90.4 °F 66.2 °F 49% 29.86 in 10.0 mi SSE 11.5 mph - N/A   Clear
1:35 PM 87.8 °F 90.4 °F 66.2 °F 49% 29.86 in 10.0 mi South 11.5 mph 18.4 mph N/A   Clear
1:55 PM 87.8 °F 91.4 °F 68.0 °F 52% 29.85 in 10.0 mi SE 12.7 mph - N/A   Clear
2:15 PM 87.8 °F 90.4 °F 66.2 °F 49% 29.84 in 10.0 mi SSE 11.5 mph 17.3 mph N/A   Clear
2:35 PM 87.8 °F 91.4 °F 68.0 °F 52% 29.84 in 10.0 mi SSE 10.4 mph 17.3 mph N/A   Clear
2:55 PM 87.8 °F 91.4 °F 68.0 °F 52% 29.83 in 10.0 mi SE 9.2 mph - N/A   Clear
3:15 PM 89.6 °F 94.7 °F 69.8 °F 52% 29.83 in 10.0 mi SE 8.1 mph 16.1 mph N/A   Clear
3:35 PM 89.6 °F 93.4 °F 68.0 °F 49% 29.83 in 10.0 mi SE 10.4 mph 17.3 mph N/A   Clear
3:55 PM 89.6 °F 94.7 °F 69.8 °F 52% 29.82 in 10.0 mi SE 10.4 mph - N/A   Clear
4:15 PM 89.6 °F 93.4 °F 68.0 °F 49% 29.82 in 10.0 mi SE 9.2 mph 18.4 mph N/A   Clear
4:35 PM 89.6 °F 92.2 °F 66.2 °F 46% 29.81 in 10.0 mi SE 11.5 mph - N/A   Clear
4:55 PM 89.6 °F 93.4 °F 68.0 °F 49% 29.81 in 10.0 mi SE 13.8 mph - N/A   Clear
5:15 PM 87.8 °F 91.4 °F 68.0 °F 52% 29.81 in 10.0 mi SSE 11.5 mph 19.6 mph N/A   Clear
5:35 PM 87.8 °F 92.6 °F 69.8 °F 55% 29.80 in 10.0 mi SE 11.5 mph 17.3 mph N/A   Clear
5:55 PM 87.8 °F 91.4 °F 68.0 °F 52% 29.79 in 10.0 mi SE 11.5 mph 18.4 mph N/A   Clear
6:15 PM 87.8 °F 91.4 °F 68.0 °F 52% 29.78 in 10.0 mi SE 12.7 mph - N/A   Clear
6:35 PM 86.0 °F 89.4 °F 68.0 °F 55% 29.77 in 10.0 mi SE 11.5 mph 18.4 mph N/A   Clear
6:55 PM 86.0 °F 89.4 °F 68.0 °F 55% 29.76 in 10.0 mi SE 10.4 mph - N/A   Clear
7:15 PM 86.0 °F 89.4 °F 68.0 °F 55% 29.75 in 10.0 mi SE 10.4 mph 16.1 mph N/A   Clear
7:35 PM 84.2 °F 87.3 °F 68.0 °F 58% 29.75 in 10.0 mi SE 9.2 mph - N/A   Clear
7:55 PM 82.4 °F 85.4 °F 68.0 °F 62% 29.76 in 10.0 mi SE 8.1 mph 13.8 mph N/A   Clear
8:15 PM 82.4 °F 85.4 °F 68.0 °F 62% 29.75 in 10.0 mi SE 9.2 mph - N/A   Clear
8:35 PM 82.4 °F 85.4 °F 68.0 °F 62% 29.76 in 10.0 mi SE 8.1 mph 13.8 mph N/A   Clear
8:55 PM 80.6 °F 83.2 °F 68.0 °F 65% 29.78 in 10.0 mi SE 6.9 mph - N/A   Clear
9:15 PM 80.6 °F 83.2 °F 68.0 °F 65% 29.79 in 10.0 mi SE 5.8 mph - N/A   Clear
9:35 PM 78.8 °F - 68.0 °F 69% 29.77 in 10.0 mi SE 10.4 mph - N/A   Clear
9:55 PM 78.8 °F - 69.8 °F 74% 29.78 in 10.0 mi SE 11.5 mph 18.4 mph N/A   Clear
10:15 PM 80.6 °F 83.9 °F 69.8 °F 70% 29.79 in 10.0 mi SE 9.2 mph 17.3 mph N/A   Clear
10:35 PM 78.8 °F - 69.8 °F 74% 29.81 in 10.0 mi SSE 8.1 mph - N/A   Clear
10:55 PM 78.8 °F - 69.8 °F 74% 29.82 in 10.0 mi SSE 9.2 mph - N/A   Clear
11:15 PM 77.0 °F - 69.8 °F 78% 29.83 in 10.0 mi South 8.1 mph - N/A   Clear
11:35 PM 75.2 °F - 69.8 °F 83% 29.83 in 9.0 mi SW 5.8 mph - N/A   Clear
11:55 PM 75.2 °F - 69.8 °F 83% 29.87 in 10.0 mi NNW 13.8 mph - N/A   Scattered Clouds